Location: Heathcote
(40.9845°N, 73.7746°W)
Time: 04:05:58
(UTC+00:00)

MOS 1 Rocket - Pass Details

Date: 29 October 2020
Orbit: 615 x 829 km, 97.4° (Epoch: 23 November)

Event Time Altitude Azimuth Distance (km) Brightness Sun altitude
Rises 23:01:40 0° 23° (NNE) 3,075 6.3 -13.3°
Reaches altitude 10° 23:04:06 10° 34° (NNE) 2,189 5.5 -13.8°
Maximum altitude 23:08:22 31° 96° (E) 1,275 4.1 -14.6°
Drops below altitude 10° 23:12:50 10° 158° (SSE) 2,296 5.8 -15.4°
Sets 23:15:27 0° 168° (SSE) 3,252 6.7 -15.9°
